DELTA 1 DEB, 10865

Orbit data source: Space-Track

DELTA 1 DEB, 10865 is space debris in SSO originally from a launch on Thu, 29 Jul 1976 UTC launched from the Air Force Western Test Range (AFWTR). Debris objects in space refer to the collection of defunct objects orbiting the Earth. Examples of debris include non-operational satellites, rocket bodies, and fragments generated from explosions, collisions, or faulty payload assembly.

Loading next visibility...
Identifier
10865, 1976-077CT
Orbit
SSO
Country
Flag of USUS
Related business
Manufacturer
Unknown
Mission
Spacecraft
Bus & Motor
Unknown
Mass
Unknown
Launch date (UTC)
1976-07-29 (50 years ago)
Launch vehicle
Unknown
Launch site
Air Force Western Test Range (AFWTR)
Object type
Payload
Rocket body
Debris
Shape & HBR
Unknown shape, 0.1 m
Radar Cross Section
Medium (>0.1 m² and <1 m²)

Expand to show TLE details & history
Last TLE update: 2 days ago

TLE from 2 days ago
0 DELTA 1 DEB
1 10865U 76077CT  26171.34638861 -.00000015  00000-0  26861-3 0  9996
2 10865 102.3962 117.4408 0111655 146.2381   7.4276 12.20359988223262
Epoch: 2026-06-20T08:18Z
TLE epoch observation values (Epoch: 2026-06-20T08:18:47.975Z)
Latitude
25.5437°
Longitude
-89.82145°
Altitude
1,505.485 km
Speed
7.153 km/s
True Right ascension
20h 13m 45s
True Declination
25° 25' 22"
Sunlit
Object was in daylight at epoch
Visualization orbit readout
Latitude
Unknown
Longitude
Unknown
Altitude
Unknown
Speed
Unknown
Apparent Right ascension
Unknown
Apparent Declination
Unknown
Sunlit
N/A
Visualization observer readout
Local Sidereal Time
02:14:11
Azimuth
Unknown
Elevation
Unknown
Doppler factor
Unknown
Orbital elements
Apogee altitude
1,677.55 km
Perigee altitude
1,499.645 km
Semi-major axis
7,966.735 km
Eccentricity
0.01117
Inclination
102.3962°
RAAN
117.4408°
Arg. of periapsis
146.2381°
True anomaly
7.59532°
Mean anomaly
7.4276°
Eccentric anomaly
7.51123°
Mean motion
3.05227 °/min
Orbital period
117.95 mins
BSTAR
0.00026861
Loading maneuver chart data...
Computing Atmospheric mass density...
Loading historical data...
Loading historical data...
Loading historical data...
Loading historical data...
Loading historical data...
Loading historical data...
Loading historical data...

Documentation

Showing up to 5 results
|